Darstellungsparameter: Aktuell verwendete Einstellungen:
Skalierung der Graphiken ... ?
xyx+y,   Skalierungsfaktor:      Skalierung: Modus: x, Faktor: 1
Darstellungszeitraum ... ?
Vom - - bis: - -   Zeitraum: 10.11.2008 - 10.11.2008
Min/Max/Avg-Anzeige ... ?
Zeige MMA aktuell
Zeige MMA Monat
Zeige MMA alles
Zeige --A aktuell
Zeige --A Monat
Zeige --A alles
Keine MMA-Anzeige
MMA:
Average (ber die Originaldaten)
MMA-Basis: 17.04.2019 - 19.05.2019
Quicknavigation für Darstellung... ?
Tage:      1T, 2T, 3T, 5T -1T -2T -3T -5T +1T +2T +3T +5T
Wochen: 1W, 2W, 3W -1W -2W -3W +1W +2W +3W
Monate: 1M, 3M, 6M -1M -3M -6M +1M +3M +6M
Jahre:    1J, 3J, 5J, 10J -1J -3J -5J -10J +1J +3J +5J +10J
Nutze für die Darstellung ... ?
Originaldaten oder Mittelwerte auf ...
Stundenbasis Tagesbasis Wochenbasis
Monatsbasis Jahresbasis      Datenbasis: Original-Daten
Darstellen als:
Statistik (Auto) Statistik J:M      Darstellung:
Zur Graphik,    zurück zur Übersicht aller Sensoren.
 
Tabellarische Datenbersicht: ?
 
Sensor: Nr:Datum:Temp:Abs-Feuchte:Windchill:Wind:
Aussen-T/F 1 10-11-2008 00:02:02 12 C 8.95 g/m*3 12 C 0 km/h
2 10-11-2008 00:14:02 12.1 C 8.69 g/m*3 12.1 C 0 km/h
3 10-11-2008 00:26:02 12.3 C 8.58 g/m*3 12.3 C 0 km/h
4 10-11-2008 00:38:02 12.3 C 8.58 g/m*3 12.3 C 0 km/h
5 10-11-2008 00:50:01 12.6 C 8.41 g/m*3 12.6 C 0 km/h
6 10-11-2008 01:02:02 12.9 C 8.34 g/m*3 12.9 C 0 km/h
7 10-11-2008 01:14:02 13 C 8.05 g/m*3 13 C 0 km/h
8 10-11-2008 01:26:01 13 C 7.94 g/m*3 13 C 0 km/h
9 10-11-2008 01:38:02 13 C 7.83 g/m*3 13 C 0 km/h
10 10-11-2008 01:50:02 13.1 C 7.53 g/m*3 13.1 C 0 km/h
11 10-11-2008 02:02:01 13 C 7.48 g/m*3 13 C 0 km/h
12 10-11-2008 02:14:01 13 C 7.48 g/m*3 13 C 0 km/h
13 10-11-2008 02:26:02 12.9 C 7.55 g/m*3 12.9 C 0 km/h
14 10-11-2008 02:38:01 12.5 C 7.81 g/m*3 12.5 C 0 km/h
15 10-11-2008 02:51:05 12 C 7.99 g/m*3 12 C 0 km/h
16 10-11-2008 03:03:05 11.8 C 8.21 g/m*3 11.8 C 0 km/h
17 10-11-2008 03:15:05 11.2 C 8.51 g/m*3 11.2 C 0 km/h
18 10-11-2008 03:27:05 11.1 C 8.66 g/m*3 11.1 C 0 km/h
19 10-11-2008 03:39:02 11.3 C 8.67 g/m*3 11.3 C 0 km/h
20 10-11-2008 03:51:02 11.6 C 8.52 g/m*3 11.6 C 0 km/h
21 10-11-2008 04:03:03 11.8 C 8.31 g/m*3 11.8 C 0 km/h
22 10-11-2008 04:15:02 11.9 C 8.26 g/m*3 11.9 C 0 km/h
23 10-11-2008 04:27:02 12 C 8.21 g/m*3 12 C 0 km/h
24 10-11-2008 04:39:03 12.3 C 8.25 g/m*3 12.3 C 0 km/h
25 10-11-2008 04:51:02 12.5 C 8.14 g/m*3 12.5 C 0 km/h
Sensor: Nr:Datum:Temp:Abs-Feuchte:Windchill:Wind:
Aussen-T/F 26 10-11-2008 05:03:02 12.5 C 8.14 g/m*3 12.5 C 0 km/h
27 10-11-2008 05:15:02 12.6 C 8.08 g/m*3 12.6 C 0 km/h
28 10-11-2008 05:27:02 12.8 C 8.06 g/m*3 12.8 C 0 km/h
29 10-11-2008 05:39:02 12.9 C 8 g/m*3 12.9 C 0 km/h
30 10-11-2008 05:51:01 13 C 7.83 g/m*3 13 C 0 km/h
31 10-11-2008 06:03:02 13 C 7.83 g/m*3 13 C 0 km/h
32 10-11-2008 06:15:02 13 C 7.83 g/m*3 13 C 0 km/h
33 10-11-2008 06:27:02 13 C 7.83 g/m*3 13 C 0 km/h
34 10-11-2008 06:39:02 13.1 C 7.76 g/m*3 13.1 C 0 km/h
35 10-11-2008 06:51:02 13 C 7.71 g/m*3 13 C 0 km/h
36 10-11-2008 07:03:02 13.1 C 7.76 g/m*3 13.1 C 0 km/h
37 10-11-2008 07:15:02 13.3 C 7.74 g/m*3 13.3 C 0 km/h
38 10-11-2008 07:27:02 13.2 C 7.69 g/m*3 13.2 C 0 km/h
39 10-11-2008 07:39:02 13.1 C 7.87 g/m*3 13.1 C 0 km/h
40 10-11-2008 07:51:02 12.8 C 8.18 g/m*3 12.8 C 0 km/h
41 10-11-2008 08:03:03 12.7 C 8.24 g/m*3 12.7 C 0 km/h
42 10-11-2008 08:15:02 13 C 8.28 g/m*3 13 C 0 km/h
43 10-11-2008 08:27:02 13 C 8.28 g/m*3 13 C 0 km/h
44 10-11-2008 08:39:03 12.8 C 8.4 g/m*3 12.8 C 0 km/h
45 10-11-2008 08:51:02 13 C 8.39 g/m*3 13 C 0 km/h
46 10-11-2008 09:03:01 13 C 8.28 g/m*3 13 C 0 km/h
47 10-11-2008 09:15:02 13 C 8.28 g/m*3 13 C 0 km/h
48 10-11-2008 09:27:03 13.2 C 8.27 g/m*3 13.2 C 0 km/h
49 10-11-2008 09:39:01 13.4 C 8.14 g/m*3 13.4 C 0 km/h
50 10-11-2008 09:51:02 13.5 C 8.07 g/m*3 13.5 C 0 km/h
Sensor: Nr:Datum:Temp:Abs-Feuchte:Windchill:Wind:
Aussen-T/F 51 10-11-2008 10:03:01 13.7 C 8.05 g/m*3 13.7 C 0 km/h
52 10-11-2008 10:15:02 13.7 C 7.93 g/m*3 13.7 C 0 km/h
53 10-11-2008 10:27:02 13.7 C 7.93 g/m*3 13.7 C 0 km/h
54 10-11-2008 10:39:01 13.8 C 7.98 g/m*3 13.8 C 0 km/h
55 10-11-2008 10:51:01 14 C 7.96 g/m*3 14 C 0 km/h
56 10-11-2008 11:03:01 14 C 8.08 g/m*3 14 C 0 km/h
57 10-11-2008 11:15:01 13.8 C 8.22 g/m*3 13.8 C 0 km/h
58 10-11-2008 11:27:01 14 C 8.2 g/m*3 14 C 0 km/h
59 10-11-2008 11:39:01 14.2 C 8.06 g/m*3 14.2 C 0 km/h
60 10-11-2008 11:51:01 14.4 C 8.03 g/m*3 14.4 C 0 km/h
61 10-11-2008 12:03:02 14.7 C 7.93 g/m*3 14.7 C 0 km/h
62 10-11-2008 12:15:02 15.2 C 7.92 g/m*3 15.2 C 0 km/h
63 10-11-2008 12:27:02 15 C 7.82 g/m*3 15 C 0 km/h
64 10-11-2008 12:39:02 15.1 C 7.87 g/m*3 15.1 C 0 km/h
65 10-11-2008 12:51:02 14.9 C 7.9 g/m*3 14.9 C 0 km/h
66 10-11-2008 13:03:01 14.9 C 7.77 g/m*3 14.9 C 0 km/h
67 10-11-2008 13:15:02 15 C 7.69 g/m*3 15 C 0 km/h
68 10-11-2008 13:27:02 14.7 C 7.81 g/m*3 14.7 C 0 km/h
69 10-11-2008 13:39:02 14.8 C 7.85 g/m*3 14.8 C 0 km/h
70 10-11-2008 13:51:02 14.9 C 7.77 g/m*3 14.9 C 0 km/h
71 10-11-2008 14:03:02 15.3 C 7.84 g/m*3 15.3 C 0 km/h
72 10-11-2008 14:15:02 15.3 C 7.57 g/m*3 15.3 C 0 km/h
73 10-11-2008 14:27:02 15.1 C 7.74 g/m*3 15.1 C 0 km/h
74 10-11-2008 14:39:02 15 C 7.82 g/m*3 15 C 0 km/h
75 10-11-2008 14:51:02 14.8 C 7.85 g/m*3 14.8 C 0 km/h
Sensor: Nr:Datum:Temp:Abs-Feuchte:Windchill:Wind:
Aussen-T/F 76 10-11-2008 15:03:01 14.8 C 7.73 g/m*3 14.8 C 0 km/h
77 10-11-2008 15:15:02 14.8 C 7.73 g/m*3 14.8 C 0 km/h
78 10-11-2008 15:27:03 14.8 C 7.73 g/m*3 14.8 C 0 km/h
79 10-11-2008 15:39:01 14.9 C 7.77 g/m*3 14.9 C 0 km/h
80 10-11-2008 15:51:03 14.8 C 7.73 g/m*3 14.8 C 0 km/h
81 10-11-2008 16:03:02 14.8 C 7.73 g/m*3 14.8 C 0 km/h
82 10-11-2008 16:15:03 14.8 C 7.73 g/m*3 14.8 C 0 km/h
83 10-11-2008 16:27:03 14.7 C 7.81 g/m*3 14.7 C 0 km/h
84 10-11-2008 16:39:02 14.6 C 7.76 g/m*3 14.6 C 0 km/h
85 10-11-2008 16:51:02 14.5 C 7.84 g/m*3 14.5 C 0 km/h
86 10-11-2008 17:03:02 14.5 C 7.71 g/m*3 14.5 C 0 km/h
87 10-11-2008 17:15:02 14.6 C 7.63 g/m*3 14.6 C 0 km/h
88 10-11-2008 17:27:02 14.7 C 7.55 g/m*3 14.7 C 0 km/h
89 10-11-2008 17:39:02 14.7 C 7.55 g/m*3 14.7 C 0 km/h
90 10-11-2008 17:51:01 14.9 C 7.65 g/m*3 14.9 C 0 km/h
91 10-11-2008 18:03:02 15.1 C 7.48 g/m*3 15.1 C 0 km/h
92 10-11-2008 18:15:01 15.2 C 7.4 g/m*3 15.2 C 0 km/h
93 10-11-2008 18:27:01 15.2 C 7.4 g/m*3 15.2 C 0 km/h
94 10-11-2008 18:39:02 14.9 C 7.39 g/m*3 14.9 C 0 km/h
95 10-11-2008 18:51:02 15.1 C 7.22 g/m*3 15.1 C 0 km/h
96 10-11-2008 19:03:03 15.1 C 7.1 g/m*3 15.1 C 0 km/h
97 10-11-2008 19:15:02 15.2 C 7.14 g/m*3 15.2 C 0 km/h
98 10-11-2008 19:27:02 15 C 7.05 g/m*3 15 C 0 km/h
99 10-11-2008 19:39:03 15.1 C 7.1 g/m*3 15.1 C 0 km/h
100 10-11-2008 19:51:02 15.2 C 7.14 g/m*3 15.2 C 0 km/h
Sensor: Nr:Datum:Temp:Abs-Feuchte:Windchill:Wind:
Aussen-T/F 101 10-11-2008 20:03:02 15.1 C 7.22 g/m*3 15.1 C 0 km/h
102 10-11-2008 20:15:02 15.3 C 7.31 g/m*3 15.3 C 0 km/h
103 10-11-2008 20:27:02 15.3 C 7.31 g/m*3 15.3 C 0 km/h
104 10-11-2008 20:39:02 15.3 C 7.31 g/m*3 15.3 C 0 km/h
105 10-11-2008 20:51:02 15.4 C 7.36 g/m*3 15.4 C 0 km/h
106 10-11-2008 21:03:02 15.5 C 7.53 g/m*3 15.5 C 0 km/h
107 10-11-2008 21:15:02 15.5 C 7.53 g/m*3 15.5 C 0 km/h
108 10-11-2008 21:27:02 15.6 C 7.58 g/m*3 15.6 C 0 km/h
109 10-11-2008 21:39:02 15.4 C 7.75 g/m*3 15.4 C 0 km/h
110 10-11-2008 21:51:01 15.2 C 8.05 g/m*3 15.2 C 0 km/h
111 10-11-2008 22:03:02 15.3 C 7.97 g/m*3 15.3 C 0 km/h
112 10-11-2008 22:15:02 15.2 C 8.05 g/m*3 15.2 C 0 km/h
113 10-11-2008 22:27:02 15.5 C 7.93 g/m*3 15.5 C 0 km/h
114 10-11-2008 22:39:02 15.7 C 7.63 g/m*3 15.7 C 0 km/h
115 10-11-2008 22:52:02 15.8 C 7.67 g/m*3 15.8 C 0 km/h
116 10-11-2008 23:04:02 15.8 C 7.54 g/m*3 15.8 C 0 km/h
117 10-11-2008 23:16:02 15.9 C 7.58 g/m*3 15.9 C 0 km/h
118 10-11-2008 23:28:02 15.8 C 7.54 g/m*3 15.8 C 0 km/h
119 10-11-2008 23:40:02 15.8 C 7.54 g/m*3 15.8 C 0 km/h
120 10-11-2008 23:52:02 16 C 7.49 g/m*3 16 C 0 km/h

Legende:
   Min
   Max


Maximal/Minimal-Werte vom 17.04.2019 - 19.05.2019

Sensor Min Max Avg
Temp
(Aussen-T/F)
2.2 °C
13-05-2019  06:50:00
26.6 °C
24-04-2019  17:05:00
11.51 °C

Die Daten stammen von einer Davis Vantage Pro 2 Wetter-Station und werden unter Linux mit der Software wview2wettercgi und aufbereitet. Alle Angaben erfolgen ohne Gewähr für ihre Vollständigkeit oder Richtigkeit.
Kontakt: Rainer Krienke krienke@uni-koblenz.de . Meine Webseiten an der Uni Koblenz oder privat.
Version: $Revision: 0.78 $